Location: Appletree Creek
(38.7363°N, 122.6833°W)
Time: 18:14:55
(UTC+00:00)

Cosmos 921 Rocket - Pass Details

Date: 18 September 2020
Orbit: 572 x 632 km, 75.8° (Epoch: 19 October)

Event Time Altitude Azimuth Distance (km) Brightness Sun altitude
Exits shadow 12:56:12 18° 250° (WSW) 1,423 4.3 -12.3°
Maximum altitude 12:58:17 27° 293° (WNW) 1,119 3.9 -11.9°
Drops below altitude 10° 13:01:51 10° 352° (N) 1,883 5.6 -11.2°
Sets 13:04:20 0° 5° (N) 2,786 6.6 -10.7°
